Location: Unspecified
(41.1637°N, 24.2901°E)
Time: 11:33:29
(UTC+02:00)

ISS - Pass Details

Date: 11 May 2026
Orbit: 414 x 424 km, 51.6° (Epoch: 12 May)

Event Time Altitude Azimuth Distance (km) Brightness Sun altitude
Rises 23:21:30 0° 304° (NW) 2,354 0.7 -29.3°
Reaches altitude 10° 23:24:22 10° 331° (NNW) 1,492 -0.1 -29.4°
Maximum altitude 23:26:14 14° 5° (N) 1,270 -0.6 -29.5°
Enters shadow 23:26:25 14° 8° (N) 1,272 -0.6 -29.5°
